This is the latest recevied weather packets stored in our database for station/object SP6KBU-12. If no packets are shown the sender has not sent any weather packets the latest 10 day(s).
| Time | Temp. | Humidity | Pressure | Rain* | Wind** | Luminosity | Snow |
|---|---|---|---|---|---|---|---|
| 1777903264 | 28.89° C | 24% | 1014.1 hPa | - | - | - | - |
| 1777902364 | 28.89° C | 24% | 1014.2 hPa | - | - | - | - |
| 1777901464 | 28.89° C | 25% | 1014.5 hPa | - | - | - | - |
| 1777900563 | 28.33° C | 25% | 1014.6 hPa | - | - | - | - |
| 1777899660 | 28.89° C | 24% | 1014.7 hPa | - | - | - | - |
| 1777898760 | 28.33° C | 25% | 1014.9 hPa | - | - | - | - |
| 1777897859 | 26.67° C | 26% | 1014.9 hPa | - | - | - | - |
| 1777896960 | 26.11° C | 26% | 1015 hPa | - | - | - | - |
| 1777896059 | 26.67° C | 25% | 1015.1 hPa | - | - | - | - |
| 1777895162 | 29.44° C | 24% | 1015.2 hPa | - | - | - | - |
| 1777894339 | 27.22° C | 25% | 1015.1 hPa | - | - | - | - |
| 1777894258 | 27.22° C | 25% | 1015.1 hPa | - | - | - | - |
| 1777893359 | 26.11° C | 26% | 1015.3 hPa | - | - | - | - |
| 1777892458 | 26.67° C | 26% | 1015.3 hPa | - | - | - | - |
| 1777891558 | 26.11° C | 26% | 1015.4 hPa | - | - | - | - |
| 1777890658 | 26.11° C | 26% | 1015.6 hPa | - | - | - | - |
| 1777889758 | 26.67° C | 27% | 1015.8 hPa | - | - | - | - |
| 1777888857 | 25° C | 28% | 1016 hPa | - | - | - | - |
| 1777887957 | 25° C | 28% | 1015.9 hPa | - | - | - | - |
| 1777887057 | 24.44° C | 29% | 1016.1 hPa | - | - | - | - |
| 1777886156 | 25° C | 26% | 1016.1 hPa | - | - | - | - |
| 1777885256 | 26.11° C | 27% | 1016.1 hPa | - | - | - | - |
| 1777884356 | 25.56° C | 27% | 1016 hPa | - | - | - | - |
| 1777883455 | 24.44° C | 31% | 1015.9 hPa | - | - | - | - |
| 1777882555 | 22.78° C | 32% | 1016 hPa | - | - | - | - |
* Rain since midnight (hover to see other rain measurements)
** Current wind speed in m/s (hover to see current wind gust speed)